Flag for Germany Weather past 2 weeks in Kulmbach, Bavaria, Germany

Now
20 °F

Passing clouds.


Feels Like: 20 °F
Forecast: 16 / 29 °F
Wind: 2 mph from South

Location: Hof

Current Time: Dec 27, 2014 at 4:58:44 AM

Latest Report: Dec 27, 2014 at 3:00 AM


Visibility: 6 mi

Pressure: 30.18 "Hg

Humidity: 97%

Dew point: 19 °F

Location of KulmbachLocation

Historic Weather in Kulmbach — Graph

°F

Kulmbach temperature yesterday

Maximum temperature yesterday: 32 °F (at 1:00 AM)
Minimum temperature yesterday: 23 °F (at 11:00 PM)
Average temperature yesterday: 29 °F

Past Weeks' High & Low Weather Summary

 TemperatureHumidityPressure
High50 °F (Dec 19, 12:00 AM)100% (Dec 15, 6:00 AM)30.44 "Hg (Dec 15, 6:00 AM)
Low20 °F (Dec 27, 3:00 AM)70% (Dec 15, 2:00 PM)29.64 "Hg (Dec 12, 9:00 PM)
Average38 °F91%30.03 "Hg
* Reported Dec 12 3:00 AM — Dec 27 3:00 AM, Kulmbach, Weather by CustomWeather, © 2014

Note: Actual official high and low records may vary slightly from our data, if they occured in-between our weather recording intervals... More about our weather records

Advertising

Kulmbach weather history for previous 24 hours

 ConditionsComfort  
Time TempWeatherWind HumidityBarometerVisibility
3:00 AM
Dec 27
20 °FPassing clouds.2 mph97%30.18 "Hg6 mi
2:00 AM25 °FOvercast.2 mph90%30.19 "Hg16 mi
1:00 AM23 °FPassing clouds.2 mph96%30.23 "Hg9 mi
12:00 AM22 °FPassing clouds.1 mph96%30.27 "Hg9 mi
11:00 PM
Dec 26
23 °FClear.2 mph89%30.29 "HgN/A
9:00 PM24 °FClear.2 mph89%30.33 "Hg15 mi
8:00 PM24 °FClear.2 mph89%30.34 "HgN/A
7:00 PM24 °FClear.2 mph89%30.36 "Hg12 mi
6:00 PM26 °FClear.2 mph83%30.36 "Hg22 mi
5:00 PM28 °FClear.2 mph77%30.35 "Hg25 mi
3:00 PM31 °FLow clouds.5 mph76%30.34 "Hg22 mi
2:00 PM32 °FOvercast.3 mph79%30.33 "Hg22 mi
1:00 PM32 °FOvercast.2 mph73%30.34 "Hg22 mi
12:00 PM31 °FOvercast.3 mph78%30.35 "Hg22 mi
11:00 AM30 °FOvercast.5 mph84%30.37 "Hg19 mi
9:00 AM29 °FLow clouds.6 mph90%30.35 "Hg17 mi
8:00 AM30 °FLight snow. Low clouds.2 mph94%30.34 "Hg2 mi
7:00 AM31 °FSnow flurries. Overcast.2 mph90%30.33 "Hg14 mi
6:00 AM30 °FSnow flurries. Overcast.1 mph93%30.33 "Hg12 mi
5:00 AM30 °FOvercast.5 mph92%30.33 "Hg14 mi
Weather by CustomWeather, © 2014

See weather overviewHow to use our weather pages